| time (UTC) | temp F | wind direction | speed knots | gust knots | rain 1hr in | rain 24hr in | rain mn in | humidity % | barometer mb |
| 20260505040100 | 56 | 148 | 0.9 | 7.0 | 0.00 | 0.00 | 0.00 | 82 | 1012.2 |
| 20260505034610 | 56 | 57 | 0.9 | 5.2 | 0.00 | 0.00 | 0.00 | 82 | 1012.2 |
| 20260505033108 | 56 | 129 | 0.9 | 4.3 | 0.00 | 0.00 | 0.00 | 81 | 1012.2 |
| 20260505031609 | 56 | 139 | 0.9 | 5.2 | 0.00 | 0.00 | 0.00 | 82 | 1012.2 |
| 20260505030057 | 56 | 190 | 0.9 | 6.1 | 0.00 | 0.00 | 0.00 | 82 | 1012.3 |
| 20260505024558 | 56 | 149 | 1.7 | 5.2 | 0.00 | 0.00 | 0.00 | 82 | 1012.4 |
| 20260505023102 | 56 | 212 | 1.7 | 5.2 | 0.00 | 0.00 | 0.00 | 81 | 1012.5 |
| 20260505021557 | 56 | 0 | 0.9 | 4.3 | 0.00 | 0.00 | 0.00 | 80 | 1012.5 |
| 20260505020058 | 56 | 217 | 0.9 | 6.1 | 0.00 | 0.00 | 0.00 | 79 | 1012.5 |
| 20260505014558 | 57 | 186 | 0.9 | 8.7 | 0.00 | 0.00 | 0.00 | 77 | 1012.4 |
| 20260505013101 | 58 | 221 | 1.7 | 6.1 | 0.00 | 0.00 | 0.00 | 73 | 1012.5 |
| 20260505011558 | 59 | 70 | 0.0 | 6.1 | 0.00 | 0.00 | 0.00 | 71 | 1012.3 |
| 20260505010056 | 60 | 198 | 1.7 | 7.8 | 0.00 | 0.00 | 0.00 | 71 | 1012.2 |
| 20260505004559 | 60 | 107 | 2.6 | 9.6 | 0.00 | 0.00 | 0.00 | 70 | 1012.2 |
| 20260505003059 | 61 | 148 | 2.6 | 8.7 | 0.00 | 0.00 | 0.00 | 69 | 1012.1 |
| 20260505001557 | 61 | 84 | 2.6 | 12.2 | 0.00 | 0.00 | 0.00 | 69 | 1012.0 |
| 20260505000107 | 61 | 119 | 1.7 | 7.8 | 0.00 | 0.00 | 0.00 | 68 | 1011.9 |
| 20260504234627 | 61 | 284 | 0.9 | 7.8 | 0.00 | 0.00 | 0.00 | 68 | 1011.8 |
| 20260504233100 | 62 | 153 | 1.7 | 8.7 | 0.00 | 0.00 | 0.00 | 67 | 1011.8 |
| 20260504231605 | 63 | 120 | 1.7 | 6.1 | 0.00 | 0.00 | 0.00 | 66 | 1011.7 |
| 20260504230059 | 63 | 0 | 1.7 | 6.1 | 0.00 | 0.00 | 0.00 | 67 | 1011.7 |
| 20260504224557 | 63 | 136 | 1.7 | 6.1 | 0.00 | 0.00 | 0.00 | 68 | 1011.8 |
| 20260504223058 | 63 | 155 | 3.5 | 6.1 | 0.00 | 0.00 | 0.00 | 69 | 1011.7 |
| 20260504221608 | 63 | 123 | 2.6 | 7.0 | 0.00 | 0.00 | 0.00 | 69 | 1011.8 |
| 20260504220058 | 62 | 231 | 4.3 | 9.6 | 0.00 | 0.00 | 0.00 | 68 | 1011.8 |
| 20260504214558 | 63 | 205 | 3.5 | 9.6 | 0.00 | 0.00 | 0.00 | 67 | 1011.7 |
| 20260504213057 | 64 | 103 | 3.5 | 7.8 | 0.00 | 0.00 | 0.00 | 67 | 1011.8 |
| 20260504211559 | 63 | 221 | 3.5 | 11.3 | 0.00 | 0.00 | 0.00 | 67 | 1011.8 |
| 20260504210110 | 63 | 198 | 4.3 | 8.7 | 0.00 | 0.00 | 0.00 | 68 | 1011.9 |
| 20260504204603 | 64 | 184 | 4.3 | 12.2 | 0.00 | 0.00 | 0.00 | 66 | 1012.0 |
| 20260504203104 | 65 | 162 | 5.2 | 10.4 | 0.00 | 0.00 | 0.00 | 64 | 1012.1 |
| 20260504201614 | 65 | 179 | 3.5 | 12.2 | 0.00 | 0.00 | 0.00 | 63 | 1012.1 |
| 20260504200110 | 65 | 212 | 5.2 | 13.9 | 0.00 | 0.00 | 0.00 | 63 | 1012.0 |
| 20260504194612 | 66 | 146 | 3.5 | 9.6 | 0.00 | 0.00 | 0.00 | 61 | 1012.1 |
| 20260504193100 | 65 | 198 | 3.5 | 10.4 | 0.00 | 0.00 | 0.00 | 61 | 1012.2 |
| 20260504191557 | 65 | 150 | 2.6 | 8.7 | 0.00 | 0.00 | 0.00 | 60 | 1012.2 |
| 20260504190130 | 66 | 129 | 5.2 | 9.6 | 0.00 | 0.00 | 0.00 | 59 | 1012.4 |
| 20260504184606 | 66 | 293 | 1.7 | 9.6 | 0.00 | 0.00 | 0.00 | 60 | 1012.6 |
| 20260504183058 | 67 | 162 | 3.5 | 10.4 | 0.00 | 0.00 | 0.00 | 58 | 1012.8 |
| 20260504181612 | 66 | 160 | 5.2 | 9.6 | 0.00 | 0.00 | 0.00 | 60 | 1013.0 |
| 20260504180150 | 67 | 143 | 3.5 | 12.2 | 0.00 | 0.00 | 0.00 | 59 | 1013.2 |
| 20260504174556 | 67 | 153 | 3.5 | 9.6 | 0.00 | 0.00 | 0.00 | 61 | 1013.1 |
| 20260504173118 | 68 | 160 | 2.6 | 10.4 | 0.00 | 0.00 | 0.00 | 58 | 1013.5 |
| 20260504171602 | 68 | 302 | 3.5 | 8.7 | 0.00 | 0.00 | 0.00 | 56 | 1013.5 |
| 20260504140113 | 65 | 153 | 1.7 | 8.7 | 0.00 | 0.00 | 0.00 | 48 | 1015.4 |
| 20260504120114 | 53 | 0 | 0.0 | 1.7 | 0.00 | 0.00 | 0.00 | 68 | 1016.1 |
| 20260504081558 | 46 | 0 | 0.0 | 2.6 | 0.00 | 0.00 | 0.00 | 76 | 1016.3 |
| 20260504050133 | 44 | 0 | 0.0 | 0.0 | 0.00 | 0.00 | 0.00 | 77 | 1015.9 |
| 20260504044559 | 45 | 0 | 0.0 | 0.0 | 0.00 | 0.00 | 0.00 | 75 | 1015.8 |
| 20260504043101 | 45 | 0 | 0.0 | 0.0 | 0.00 | 0.00 | 0.00 | 74 | 1015.6 |
| 20260504041558 | 45 | 0 | 0.0 | 0.0 | 0.00 | 0.00 | 0.00 | 74 | 1015.6 |